User: anonymous   Login
Location: house
(32.4460°N, 85.5928°W)
Time: 19:42:56
(UTC-05:00)
Language:

ESTCUBE 1 - Orbit

View from above orbital plane
View from above orbital plane
View from above satellite
View from above satellite

Ground track
Ground track

The orbit data is extracted from the following two-line orbital elements,

1 39161U 13021C   19288.73067319  .00000149  00000-0  31372-4 0  9995
2 39161  97.9815  11.4919 0008685 311.0218  49.0246 14.72236996345881
Epoch (UTC): 15 October 2019 17:32:10
Eccentricity: 0.0008685
inclination: 97.9815°
perigee height: 648 km
apogee height: 660 km
right ascension of ascending node: 11.4919°
argument of perigee: 311.0218°
revolutions per day: 14.72236996
mean anomaly at epoch: 49.0246°
orbit number at epoch: 34588

The dashed part of the orbit path shows where the satellite is in the earth's shadow,  

DLR